Location: Aufkirchen
(47.9603°N, 11.3653°E)
Time: 14:38:26
(UTC+01:00)

Transit 2A Rocket - Pass Details

Date: 07 December 2020
Orbit: 592 x 910 km, 66.7° (Epoch: 21 January)

Event Time Altitude Azimuth Distance (km) Brightness Sun altitude
Rises 00:29:20 0° 212° (SSW) 3,494 - -64.2°
Reaches altitude 10° 00:31:53 10° 213° (SSW) 2,532 - -64.1°
Maximum altitude 00:37:48 90° 291° (WNW) 846 - -63.9°
Drops below altitude 10° 00:43:17 10° 35° (NE) 2,362 - -63.6°
Sets 00:45:37 0° 36° (NE) 3,245 - -63.5°
